This demonstration page uses our WeatherBlox Daily Observations layout. Learn more.

Hourly Observations for April 10, 2018

Temp ( °F °C ) Dew Point ( °F °C ) Humidity (%) Winds ( mph kmh ) Pressure ( in mb ) Visibility ( mi km ) Precip ( " mm )
12:15 am 00:15 Clear 26 -3.5 22 -5.6 86 86 SSE 3 6 30.42 1030 10 16.0934 0 0
12:35 am 00:35 Clear 27 -3 22 -5.4 84 84 S 5 7 30.42 1030 10 16.0934 0 0
12:55 am 00:55 Clear 27 -2.8 23 -5.1 84 84 S 5 7 30.42 1030 10 16.0934 0 0
1:15 am 01:15 Clear 28 -2 24 -4.5 83 83 S 7 11 30.42 1030 10 16.0934 0 0
1:35 am 01:35 Clear 27 -2.7 23 -5.2 83 83 S 5 7 30.42 1030 10 16.0934 0 0
1:55 am 01:55 Clear 26 -3.1 22 -5.5 84 84 S 5 7 30.42 1030 10 16.0934 0 0
2:15 am 02:15 Clear 27 -2.7 23 -5 84 84 SSW 5 7 30.42 1030 10 16.0934 0 0
2:35 am 02:35 Partly Cloudy 27 -2.7 23 -5 84 84 SSW 6 9 30.42 1030 10 16.0934 0 0
2:55 am 02:55 Mostly Cloudy 27 -2.8 24 -4.7 87 87 SSW 8 13 30.42 1030 10 16.0934 0 0
3:15 am 03:15 Mostly Cloudy 28 -2.5 24 -4.2 88 88 SSW 7 11 30.39 1029 10 16.0934 0 0
3:35 am 03:35 Mostly Cloudy 28 -2.1 25 -4.1 86 86 SSW 8 13 30.39 1029 10 16.0934 0 0
3:55 am 03:55 Cloudy 29 -1.7 25 -4 85 85 SSW 10 17 30.39 1029 10 16.0934 0 0
4:15 am 04:15 Mostly Cloudy 29 -1.5 25 -4 83 83 SSW 8 13 30.39 1029 10 16.0934 0 0
4:35 am 04:35 Cloudy 30 -1 25 -3.7 82 82 SSW 10 17 30.33 1027 10 16.0934 0 0
4:55 am 04:55 Cloudy 31 -0.4 26 -3.3 81 81 SSW 12 19 30.33 1027 10 16.0934 0 0
5:15 am 05:15 Cloudy 32 0 27 -3 80 80 SSW 14 22 30.33 1027 10 16.0934 0 0
5:35 am 05:35 Cloudy 32 0 26 -3.1 80 80 SSW 17 28 30.33 1027 10 16.0934 0 0
5:55 am 05:55 Cloudy 32 0.1 26 -3.1 79 79 SSW 12 19 30.33 1027 10 16.0934 0 0
6:15 am 06:15 Cloudy 32 0.1 26 -3.1 79 79 SSW 13 20 30.33 1027 10 16.0934 0 0
6:35 am 06:35 Cloudy 32 0.1 27 -3 80 80 SSW 10 17 30.33 1027 10 16.0934 0 0
6:55 am 06:55 Cloudy 32 0.1 27 -3 80 80 S 10 17 30.3 1026 10 16.0934 0 0
7:15 am 07:15 Cloudy 32 0 27 -2.7 82 82 S 9 15 30.3 1026 10 16.0934 0 0
7:35 am 07:35 Cloudy 32 0.1 28 -2.5 83 83 S 9 15 30.3 1026 10 16.0934 0 0
7:55 am 07:55 Cloudy 33 0.5 28 -2.1 83 83 S 8 13 30.3 1026 10 16.0934 0 0
8:15 am 08:15 Cloudy 34 1 29 -1.7 82 82 S 5 7 30.3 1026 10 16.0934 0 0
8:35 am 08:35 Cloudy with Light Rain 35 1.5 30 -1.1 83 83 SSE 6 9 30.27 1025 10 16.0934 0 0
8:55 am 08:55 Mostly Cloudy 38 3.4 32 0.1 79 79 S 7 11 30.27 1025 10 16.0934 0 0
9:15 am 09:15 Mostly Cloudy 39 4.1 33 0.6 78 78 S 12 19 30.24 1024 10 16.0934 0 0
9:35 am 09:35 Partly Cloudy 40 4.6 33 0.6 76 76 S 14 22 30.21 1023 10 16.0934 0 0
9:55 am 09:55 Sunny 43 6.2 35 1.4 72 72 SSW 13 20 30.21 1023 10 16.0934 0 0
10:15 am 10:15 Sunny 45 7.1 35 1.6 68 68 SSW 12 19 30.15 1021 10 16.0934 0 0
10:35 am 10:35 Sunny 47 8.3 36 2.1 65 65 SW 9 15 30.15 1021 10 16.0934 0 0
10:55 am 10:55 Sunny 49 9.3 36 2.2 61 61 SW 9 15 30.15 1021 10 16.0934 0 0
11:15 am 11:15 Sunny 51 10.4 37 2.6 59 59 WSW 9 15 30.12 1020 10 16.0934 0 0
11:35 am 11:35 Sunny 51 10.8 36 2.4 56 56 WSW 9 15 30.12 1020 10 16.0934 0 0
11:55 am 11:55 Sunny 53 11.9 37 2.8 54 54 W 9 15 30.12 1020 10 16.0934 0 0
12:15 pm 12:15 Sunny 55 12.8 37 3 52 52 W 9 15 30.12 1020 10 16.0934 0 0
12:35 pm 12:35 Sunny 56 13.2 37 2.7 49 49 W 9 15 30.12 1020 10 16.0934 0 0
12:55 pm 12:55 Sunny 58 14.4 37 2.6 45 45 WNW 6 9 30.09 1019 10 16.0934 0 0
1:15 pm 13:15 Sunny 59 15.2 36 2.1 41 41 NW 5 7 30.09 1019 10 16.0934 0 0
1:35 pm 13:35 Sunny 61 16.2 36 2.3 39 39 Calm 30.06 1018 10 16.0934 0 0
1:55 pm 13:55 Sunny 63 17.4 36 2.3 37 37 WNW 5 7 30.03 1017 10 16.0934 0 0
2:15 pm 14:15 Sunny 64 17.8 35 1.7 34 34 N 6 9 30.03 1017 10 16.0934 0 0
2:35 pm 14:35 Sunny 65 18.6 34 1.2 31 31 W 3 6 30 1016 10 16.0934 0 0
2:55 pm 14:55 Sunny 66 19 34 1.3 31 31 NNW 7 11 30 1016 10 16.0934 0 0
3:15 pm 15:15 Sunny 66 19.1 33 0.3 28 28 NW 7 11 30 1016 10 16.0934 0 0
3:35 pm 15:35 Sunny 67 19.6 32 0.1 27 27 WNW 9 15 29.97 1015 10 16.0934 0 0
3:55 pm 15:55 Sunny 68 20 33 0.4 27 27 WNW 9 15 29.94 1014 10 16.0934 0 0
4:15 pm 16:15 Sunny 68 20.1 32 0.1 26 26 WNW 9 15 29.94 1014 10 16.0934 0 0
4:35 pm 16:35 Partly Cloudy 68 20.2 32 0.1 26 26 NW 9 15 29.94 1014 10 16.0934 0 0
4:55 pm 16:55 Partly Cloudy 69 20.5 32 0 25 25 W 15 24 29.91 1013 10 16.0934 0 0
5:15 pm 17:15 Sunny 69 20.4 32 0.2 26 26 W 5 7 29.91 1013 10 16.0934 0 0
5:35 pm 17:35 Sunny 69 20.5 32 0.1 26 26 WNW 7 11 29.91 1013 10 16.0934 0 0
5:55 pm 17:55 Sunny 69 20.7 33 0.4 26 26 WNW 7 11 29.91 1013 10 16.0934 0 0
6:15 pm 18:15 Partly Cloudy 69 20.3 33 0.3 26 26 WSW 7 11 29.88 1012 10 16.0934 0 0
6:35 pm 18:35 Sunny 68 20.1 32 0.1 26 26 W 6 9 29.91 1013 10 16.0934 0 0
6:55 pm 18:55 Sunny 67 19.3 32 0.1 28 28 W 8 13 29.88 1012 10 16.0934 0 0
7:15 pm 19:15 Sunny 66 19 32 0 28 28 W 6 9 29.91 1013 10 16.0934 0 0
7:35 pm 19:35 Sunny 65 18.1 32 0 30 30 WNW 5 7 29.91 1013 10 16.0934 0 0
7:55 pm 19:55 Sunny 63 17.2 32 -0.1 31 31 WNW 5 7 29.91 1013 10 16.0934 0 0
8:15 pm 20:15 Clear 61 15.9 31 -0.5 33 33 Calm 29.91 1013 10 16.0934 0 0
8:35 pm 20:35 Clear 56 13.6 31 -0.5 38 38 Calm 29.94 1014 10 16.0934 0 0
8:55 pm 20:55 Clear 56 13.5 31 -0.5 38 38 Calm 29.94 1014 10 16.0934 0 0
9:15 pm 21:15 Clear 52 11 31 -0.7 45 45 Calm 29.97 1015 10 16.0934 0 0
9:35 pm 21:35 Clear 51 10.5 31 -0.4 47 47 SSE 6 9 29.97 1015 10 16.0934 0 0
9:55 pm 21:55 Clear 48 8.7 31 -0.5 53 53 S 5 7 30 1016 7 11.26538 0 0
11:55 pm 23:55 Clear 51 10.8 33 0.5 49 49 S 6 9 29.94 1014 10 16.0934 0 0

Powered by AerisWeather